GSAT0219 (GALILEO 23)

Last updated on Mon Jul 14 2025 00:02:34 GMT+0000 (Coordinated Universal Time)

1 43566U 18060C 25194.45938737 -.00000073 00000+0 00000+0 0 9995 2 43566 57.2681 350.9307 0001667 298.9039 61.0779 1.70475986 43411
UTC large
Height (km)
Speed (km/s)
/
Latitude / Longitude
Inclination (degrees)
Orbital Period (minutes)
Azimuth
Elevation
Range (km)
Doppler Factor

Next 0 passes for location: London (51.5072 / 0.1276)

Sorry there are no passes over London.